Regional Weather Roundup
Issued by NWS Northern Indiana

Home | Current Version | Previous Version | Text Only | Print | Product List | Glossary On
Versions: 1 2 3 4 5 6 7 8 9 10 11 12 13 14 15 16 17 18 19 20 21 22 23 24 25 26 27 28 29 30 31 32 33 34 35 36 37 38 39 40 41 42 43 44 45 46 47 48 49 50
000
ASUS43 KIWX 041510
RWRIWX

KIWX WEATHER ROUNDUP
NATIONAL WEATHER SERVICE NORTHERN INDIANA
1100 AM EDT TUE AUG 04 2015

NOTE: "FAIR" INDICATES FEW OR NO CLOUDS BELOW 12,000 FEET WITH NO
SIGNIFICANT WEATHER AND/OR OBSTRUCTIONS TO VISIBILITY.

* THESE STATIONS ARE NOT UNDER NWS QUALITY CONTROL. THEY ALSO MAY NOT
  REPORT WEATHER SUCH AS PRECIPITATION OR FOG.

INZ001>027-041600-
NORTHERN INDIANA

CITY           SKY/WX    TMP DP  RH WIND       PRES   REMARKS
GARY*          PTSUNNY   77  55  47 NW8       29.98S
VALPARAISO     SUNNY     76  56  49 W6        29.99S
MICHIGAN CITY* SUNNY     73  55  53 W5        29.99R
LAPORTE*       SUNNY     77  61  57 W7        29.99S
KNOX*          SUNNY     73  61  64 SW5       29.98S
SOUTH BEND     SUNNY     77  57  50 NW7       29.98R
ELKHART*       SUNNY     75  55  50 W6        29.98R
GOSHEN         SUNNY     74  62  66 W5        29.98R
MONTICELLO*    SUNNY     72  62  72 SW6       30.00R
LOGANSPORT*    SUNNY     72  54  53 SW6       30.01S
ROCHESTER*     SUNNY     73  64  73 W6        30.00S
WARSAW*        SUNNY     73  61  64 W5        29.99S
ANGOLA*        SUNNY     75  63  64 W3        29.97S
FORT WAYNE     PTSUNNY   75  60  59 SW9       29.99S
HUNTINGTON*    SUNNY     74  58  57 W13       29.99S
PERU/GRISSOM   SUNNY     74  61  63 W8        29.99R
MARION*        SUNNY     73  60  61 W8        30.01S

$$
INZ028>050-041600-
CENTRAL INDIANA

CITY           SKY/WX    TMP DP  RH WIND       PRES   REMARKS
LAFAYETTE      MOSUNNY   73  61  65 W7        30.00S
KOKOMO*        SUNNY     75  59  57 W10       30.00S
MUNCIE*        SUNNY     74  58  57 W6        30.00S
INDIANAPOLIS   PTSUNNY   77  53  43 SW6       30.00F

$$
MIZ043>046-050>051-056>058-064>065-071>073-077>080-041600-
SOUTHWEST LOWER MICHIGAN

CITY           SKY/WX    TMP DP  RH WIND       PRES   REMARKS
BATTLE CREEK     N/A    N/A N/A N/A MISG      29.96S
BENTON HARBOR  SUNNY     75  57  53 W8        29.96S
COLDWATER*     SUNNY     73  57  56 CALM      29.97S
HILLSDALE*     SUNNY     75  58  57 W9        29.97S
HOLLAND        SUNNY     74  57  55 W10       29.96S
GRAND RAPIDS   MOSUNNY   75  55  49 W10G16    29.95R
KALAMAZOO      SUNNY     75  54  47 W12       29.97R
STURGIS*       SUNNY     73  61  64 NW7       29.97S
THREE RIVERS*  FAIR      76  55  48 W10       29.97S

$$
OHZ001>008-015>018-024>025-041600-
NORTHWEST OHIO

CITY           SKY/WX    TMP DP  RH WIND       PRES   REMARKS
WAUSEON*       FAIR      73  63  68 W9        29.96S
DEFIANCE       MOSUNNY   76  60  57 W5        29.97R
FINDLAY        SUNNY     76  56  49 W12       29.97R
TOLEDO EXPRESS SUNNY     74  59  59 SW10      29.95S
TOLEDO METCALF SUNNY     75  56  51 SW12      29.96S
LIMA           SUNNY     75  56  51 SW9       29.99R

$$
AND FOR LAKE MICHIGAN COASTAL AND OPEN LAKE BUOY OBSERVATIONS

STATION/POSITION TEMP    WIND        PRES    VSBY  WAVE
                 AIR SEA DIR/SP/G                  HT/PER
                 (F)     (DEG/KT/KT) (MB)    (MI)  (FT/S)
CALUMET HARBOR    74     230/  2/  6   N/A
MICHIGAN CITY     70     220/ 10/ 11   N/A
BURNS HARBOR      71     280/  5/  6 1015.6R
SAINT JOSEPH      75     200/  7/  9 1015.2F
4 MI NW BRIDGMAN  71 73  280/  6/  6   N/A           1/ 3
MICHIGAN CITY     71 74  270/  6/  8   N/A           1/ 3

$$
&&


USA.gov is the U.S. government's official web portal to all federal, state and local government web resources and services.